CANX-2

Last updated on Sun Jun 21 2026 00:03:49 GMT+0000 (Coordinated Universal Time)

1 32790U 08021H 26171.41180485 .00003254 00000+0 22966-3 0 9991 2 32790 97.8644 151.2519 0011364 41.6924 318.5166 15.05639648985296
UTC large
Height (km)
Speed (km/s)
/
Latitude / Longitude
Inclination (degrees)
Orbital Period (minutes)
Azimuth
Elevation
Range (km)
Doppler Factor

Next 0 passes for location: London (51.5072 / 0.1276)

No passes found over London.
CANX-2